Location: Alpha Ridge Park
(39.3209°N, 76.9128°W)
Time: 04:45:39
(UTC-04:00)

Vanguard 2 Rocket - Pass Details

Date: 25 May 2019
Orbit: 555 x 3326 km, 32.9° (Epoch: 24 June)

Event Time Altitude Azimuth Distance (km) Brightness Sun altitude
Rises 07:46:02 0° 253° (WSW) 7,214 10.9 20.9°
Reaches altitude 10° 07:51:16 10° 251° (WSW) 6,009 10.6 21.9°
Maximum altitude 08:08:37 64° 175° (S) 2,425 9.4 25.2°
Drops below altitude 10° 08:18:49 10° 97° (E) 3,724 11.6 27.2°
Sets 08:21:17 0° 94° (E) 4,415 11.7 27.6°
